iso_date,Year,Hour,Min,DOY,POS_DOY,Lat,Lon,BP,Ts,Ta,has_bp,has_ts,has_ta,BuoyID,Buoy_Type,Buoy_Owner,Logistics,Hemisphere
2020-07-06T18:00:00Z,2020,18,0,188.75,188.75,59.013,-59.04,-999.0,5.01,-999.0,no,yes,no,300234066510040,SVPGHI,AOML,UNKNOWN,North
2020-07-06T19:00:02Z,2020,19,0,188.7917,188.7917,59.013,-59.017,-999.0,5.12,-999.0,no,yes,no,300234066510040,SVPGHI,AOML,UNKNOWN,North
2020-07-06T19:59:57Z,2020,20,0,188.8333,188.8333,59.016,-59.007,-999.0,4.98,-999.0,no,yes,no,300234066510040,SVPGHI,AOML,UNKNOWN,North
2020-07-06T21:00:00Z,2020,21,0,188.875,188.875,59.023,-59.004,-999.0,4.92,-999.0,no,yes,no,300234066510040,SVPGHI,AOML,UNKNOWN,North
2020-07-06T22:00:02Z,2020,22,0,188.9167,188.9167,59.033,-59.014,-999.0,4.86,-999.0,no,yes,no,300234066510040,SVPGHI,AOML,UNKNOWN,North
2020-07-06T22:59:57Z,2020,23,0,188.9583,188.9583,59.04,-59.031,-999.0,4.85,-999.0,no,yes,no,300234066510040,SVPGHI,AOML,UNKNOWN,North
2020-07-07T00:00:00Z,2020,0,0,189.0,189.0,59.041,-59.044,-999.0,4.84,-999.0,no,yes,no,300234066510040,SVPGHI,AOML,UNKNOWN,North
2020-07-07T01:00:02Z,2020,1,0,189.0417,189.0417,59.036,-59.052,-999.0,4.88,-999.0,no,yes,no,300234066510040,SVPGHI,AOML,UNKNOWN,North
2020-07-07T01:59:57Z,2020,2,0,189.0833,189.0833,59.027,-59.057,-999.0,4.68,-999.0,no,yes,no,300234066510040,SVPGHI,AOML,UNKNOWN,North
2020-07-07T03:00:00Z,2020,3,0,189.125,189.125,59.016,-59.059,-999.0,4.65,-999.0,no,yes,no,300234066510040,SVPGHI,AOML,UNKNOWN,North
2020-07-07T04:00:02Z,2020,4,0,189.1667,189.1667,59.006,-59.05,-999.0,4.84,-999.0,no,yes,no,300234066510040,SVPGHI,AOML,UNKNOWN,North
2020-07-07T04:59:57Z,2020,5,0,189.2083,189.2083,59.001,-59.028,-999.0,4.75,-999.0,no,yes,no,300234066510040,SVPGHI,AOML,UNKNOWN,North
2020-07-07T06:00:00Z,2020,6,0,189.25,189.25,59.001,-59.006,-999.0,4.69,-999.0,no,yes,no,300234066510040,SVPGHI,AOML,UNKNOWN,North
2020-07-07T07:00:02Z,2020,7,0,189.2917,189.2917,59.002,-58.995,-999.0,4.77,-999.0,no,yes,no,300234066510040,SVPGHI,AOML,UNKNOWN,North
2020-07-07T07:59:57Z,2020,8,0,189.3333,189.3333,59.002,-58.995,-999.0,4.74,-999.0,no,yes,no,300234066510040,SVPGHI,AOML,UNKNOWN,North
2020-07-07T09:00:00Z,2020,9,0,189.375,189.375,59.007,-58.998,-999.0,4.81,-999.0,no,yes,no,300234066510040,SVPGHI,AOML,UNKNOWN,North
2020-07-07T10:00:02Z,2020,10,0,189.4167,189.4167,59.012,-59.007,-999.0,4.85,-999.0,no,yes,no,300234066510040,SVPGHI,AOML,UNKNOWN,North
2020-07-07T10:59:57Z,2020,11,0,189.4583,189.4583,59.015,-59.025,-999.0,4.88,-999.0,no,yes,no,300234066510040,SVPGHI,AOML,UNKNOWN,North
2020-07-07T12:00:00Z,2020,12,0,189.5,189.5,59.015,-59.046,-999.0,4.9,-999.0,no,yes,no,300234066510040,SVPGHI,AOML,UNKNOWN,North
2020-07-07T13:00:02Z,2020,13,0,189.5417,189.5417,59.014,-59.058,-999.0,4.91,-999.0,no,yes,no,300234066510040,SVPGHI,AOML,UNKNOWN,North
2020-07-07T13:59:57Z,2020,14,0,189.5833,189.5833,59.007,-59.062,-999.0,5.21,-999.0,no,yes,no,300234066510040,SVPGHI,AOML,UNKNOWN,North
2020-07-07T15:00:00Z,2020,15,0,189.625,189.625,58.994,-59.058,-999.0,5.1,-999.0,no,yes,no,300234066510040,SVPGHI,AOML,UNKNOWN,North
2020-07-07T16:01:03Z,2020,16,1,189.6674,189.6674,58.981,-59.057,-999.0,5.24,-999.0,no,yes,no,300234066510040,SVPGHI,AOML,UNKNOWN,North
2020-07-07T16:59:57Z,2020,17,0,189.7083,189.7083,58.969,-59.049,-999.0,5.16,-999.0,no,yes,no,300234066510040,SVPGHI,AOML,UNKNOWN,North
2020-07-07T18:00:00Z,2020,18,0,189.75,189.75,58.964,-59.035,-999.0,5.25,-999.0,no,yes,no,300234066510040,SVPGHI,AOML,UNKNOWN,North
2020-07-07T19:00:02Z,2020,19,0,189.7917,189.7917,58.96,-59.014,-999.0,5.41,-999.0,no,yes,no,300234066510040,SVPGHI,AOML,UNKNOWN,North
2020-07-07T19:59:57Z,2020,20,0,189.8333,189.8333,58.962,-58.994,-999.0,5.34,-999.0,no,yes,no,300234066510040,SVPGHI,AOML,UNKNOWN,North
2020-07-07T21:00:00Z,2020,21,0,189.875,189.875,58.963,-58.975,-999.0,5.25,-999.0,no,yes,no,300234066510040,SVPGHI,AOML,UNKNOWN,North
2020-07-07T22:00:02Z,2020,22,0,189.9167,189.9167,58.967,-58.974,-999.0,5.13,-999.0,no,yes,no,300234066510040,SVPGHI,AOML,UNKNOWN,North
2020-07-07T22:59:57Z,2020,23,0,189.9583,189.9583,58.973,-58.989,-999.0,5.11,-999.0,no,yes,no,300234066510040,SVPGHI,AOML,UNKNOWN,North
2020-07-08T00:00:00Z,2020,0,0,190.0,190.0,58.98,-59.006,-999.0,4.92,-999.0,no,yes,no,300234066510040,SVPGHI,AOML,UNKNOWN,North
2020-07-08T01:00:02Z,2020,1,0,190.0417,190.0417,58.983,-59.018,-999.0,4.97,-999.0,no,yes,no,300234066510040,SVPGHI,AOML,UNKNOWN,North
2020-07-08T01:59:57Z,2020,2,0,190.0833,190.0833,58.978,-59.03,-999.0,4.94,-999.0,no,yes,no,300234066510040,SVPGHI,AOML,UNKNOWN,North
2020-07-08T03:04:01Z,2020,3,4,190.1278,190.1278,58.968,-59.036,-999.0,5.01,-999.0,no,yes,no,300234066510040,SVPGHI,AOML,UNKNOWN,North
2020-07-08T04:03:56Z,2020,4,4,190.1694,190.1694,58.958,-59.034,-999.0,4.98,-999.0,no,yes,no,300234066510040,SVPGHI,AOML,UNKNOWN,North
2020-07-08T04:59:57Z,2020,5,0,190.2083,190.2083,58.955,-59.029,-999.0,5.03,-999.0,no,yes,no,300234066510040,SVPGHI,AOML,UNKNOWN,North
2020-07-08T06:00:00Z,2020,6,0,190.25,190.25,58.94,-59.001,-999.0,4.95,-999.0,no,yes,no,300234066510040,SVPGHI,AOML,UNKNOWN,North
2020-07-08T07:00:02Z,2020,7,0,190.2917,190.2917,58.934,-58.985,-999.0,4.95,-999.0,no,yes,no,300234066510040,SVPGHI,AOML,UNKNOWN,North
2020-07-08T07:59:57Z,2020,8,0,190.3333,190.3333,58.935,-58.967,-999.0,4.87,-999.0,no,yes,no,300234066510040,SVPGHI,AOML,UNKNOWN,North
2020-07-08T09:00:00Z,2020,9,0,190.375,190.375,58.938,-58.958,-999.0,4.96,-999.0,no,yes,no,300234066510040,SVPGHI,AOML,UNKNOWN,North
2020-07-08T10:00:02Z,2020,10,0,190.4167,190.4167,58.944,-58.952,-999.0,4.9,-999.0,no,yes,no,300234066510040,SVPGHI,AOML,UNKNOWN,North
2020-07-08T11:00:57Z,2020,11,1,190.459,190.459,58.946,-58.954,-999.0,4.9,-999.0,no,yes,no,300234066510040,SVPGHI,AOML,UNKNOWN,North
2020-07-08T12:00:00Z,2020,12,0,190.5,190.5,58.95,-58.963,-999.0,4.93,-999.0,no,yes,no,300234066510040,SVPGHI,AOML,UNKNOWN,North
2020-07-08T13:00:02Z,2020,13,0,190.5417,190.5417,58.952,-58.976,-999.0,4.95,-999.0,no,yes,no,300234066510040,SVPGHI,AOML,UNKNOWN,North
2020-07-08T13:59:57Z,2020,14,0,190.5833,190.5833,58.951,-58.981,-999.0,4.98,-999.0,no,yes,no,300234066510040,SVPGHI,AOML,UNKNOWN,North
2020-07-08T15:00:00Z,2020,15,0,190.625,190.625,58.948,-58.99,-999.0,5.02,-999.0,no,yes,no,300234066510040,SVPGHI,AOML,UNKNOWN,North
2020-07-08T16:01:03Z,2020,16,1,190.6674,190.6674,58.942,-58.993,-999.0,5.04,-999.0,no,yes,no,300234066510040,SVPGHI,AOML,UNKNOWN,North
2020-07-08T16:59:57Z,2020,17,0,190.7083,190.7083,58.931,-58.977,-999.0,5.09,-999.0,no,yes,no,300234066510040,SVPGHI,AOML,UNKNOWN,North
2020-07-08T18:00:00Z,2020,18,0,190.75,190.75,58.92,-58.967,-999.0,5.1,-999.0,no,yes,no,300234066510040,SVPGHI,AOML,UNKNOWN,North
2020-07-08T19:03:56Z,2020,19,4,190.7944,190.7944,58.916,-58.96,-999.0,5.11,-999.0,no,yes,no,300234066510040,SVPGHI,AOML,UNKNOWN,North
2020-07-08T19:59:57Z,2020,20,0,190.8333,190.8333,58.918,-58.958,-999.0,5.1,-999.0,no,yes,no,300234066510040,SVPGHI,AOML,UNKNOWN,North
2020-07-08T21:00:00Z,2020,21,0,190.875,190.875,58.919,-58.944,-999.0,5.17,-999.0,no,yes,no,300234066510040,SVPGHI,AOML,UNKNOWN,North
2020-07-08T22:00:02Z,2020,22,0,190.9167,190.9167,58.924,-58.939,-999.0,5.09,-999.0,no,yes,no,300234066510040,SVPGHI,AOML,UNKNOWN,North
2020-07-08T22:59:57Z,2020,23,0,190.9583,190.9583,58.926,-58.934,-999.0,5.06,-999.0,no,yes,no,300234066510040,SVPGHI,AOML,UNKNOWN,North
2020-07-09T00:00:00Z,2020,0,0,191.0,191.0,58.929,-58.938,-999.0,5.02,-999.0,no,yes,no,300234066510040,SVPGHI,AOML,UNKNOWN,North
2020-07-09T01:00:02Z,2020,1,0,191.0417,191.0417,58.929,-58.951,-999.0,5.04,-999.0,no,yes,no,300234066510040,SVPGHI,AOML,UNKNOWN,North
2020-07-09T01:59:57Z,2020,2,0,191.0833,191.0833,58.928,-58.958,-999.0,5.05,-999.0,no,yes,no,300234066510040,SVPGHI,AOML,UNKNOWN,North
2020-07-09T03:00:00Z,2020,3,0,191.125,191.125,58.924,-58.965,-999.0,5.04,-999.0,no,yes,no,300234066510040,SVPGHI,AOML,UNKNOWN,North
2020-07-09T04:00:02Z,2020,4,0,191.1667,191.1667,58.918,-58.969,-999.0,5.01,-999.0,no,yes,no,300234066510040,SVPGHI,AOML,UNKNOWN,North
2020-07-09T04:59:57Z,2020,5,0,191.2083,191.2083,58.912,-58.968,-999.0,5.01,-999.0,no,yes,no,300234066510040,SVPGHI,AOML,UNKNOWN,North
2020-07-09T06:01:00Z,2020,6,1,191.2507,191.2507,58.905,-58.955,-999.0,5.0,-999.0,no,yes,no,300234066510040,SVPGHI,AOML,UNKNOWN,North
2020-07-09T07:00:02Z,2020,7,0,191.2917,191.2917,58.898,-58.944,-999.0,5.0,-999.0,no,yes,no,300234066510040,SVPGHI,AOML,UNKNOWN,North
2020-07-09T07:59:57Z,2020,8,0,191.3333,191.3333,58.892,-58.937,-999.0,5.06,-999.0,no,yes,no,300234066510040,SVPGHI,AOML,UNKNOWN,North
2020-07-09T09:00:00Z,2020,9,0,191.375,191.375,58.891,-58.93,-999.0,5.06,-999.0,no,yes,no,300234066510040,SVPGHI,AOML,UNKNOWN,North
2020-07-09T10:00:02Z,2020,10,0,191.4167,191.4167,58.893,-58.921,-999.0,5.04,-999.0,no,yes,no,300234066510040,SVPGHI,AOML,UNKNOWN,North
2020-07-09T11:00:57Z,2020,11,1,191.459,191.459,58.896,-58.912,-999.0,5.04,-999.0,no,yes,no,300234066510040,SVPGHI,AOML,UNKNOWN,North
2020-07-09T12:00:00Z,2020,12,0,191.5,191.5,58.903,-58.912,-999.0,5.13,-999.0,no,yes,no,300234066510040,SVPGHI,AOML,UNKNOWN,North
2020-07-09T13:00:02Z,2020,13,0,191.5417,191.5417,58.906,-58.915,-999.0,5.22,-999.0,no,yes,no,300234066510040,SVPGHI,AOML,UNKNOWN,North
2020-07-09T13:59:57Z,2020,14,0,191.5833,191.5833,58.912,-58.921,-999.0,5.15,-999.0,no,yes,no,300234066510040,SVPGHI,AOML,UNKNOWN,North
2020-07-09T15:01:00Z,2020,15,1,191.6257,191.6257,58.914,-58.938,-999.0,5.19,-999.0,no,yes,no,300234066510040,SVPGHI,AOML,UNKNOWN,North
2020-07-09T16:03:56Z,2020,16,4,191.6694,191.6694,58.91,-58.947,-999.0,5.21,-999.0,no,yes,no,300234066510040,SVPGHI,AOML,UNKNOWN,North
2020-07-09T17:03:59Z,2020,17,4,191.7111,191.7111,58.905,-58.952,-999.0,5.38,-999.0,no,yes,no,300234066510040,SVPGHI,AOML,UNKNOWN,North
2020-07-09T18:04:01Z,2020,18,4,191.7528,191.7528,58.885,-58.952,-999.0,5.41,-999.0,no,yes,no,300234066510040,SVPGHI,AOML,UNKNOWN,North
2020-07-09T19:00:02Z,2020,19,0,191.7917,191.7917,58.871,-58.949,-999.0,5.25,-999.0,no,yes,no,300234066510040,SVPGHI,AOML,UNKNOWN,North
2020-07-09T19:59:57Z,2020,20,0,191.8333,191.8333,58.859,-58.944,-999.0,5.27,-999.0,no,yes,no,300234066510040,SVPGHI,AOML,UNKNOWN,North
2020-07-09T21:00:00Z,2020,21,0,191.875,191.875,58.849,-58.924,-999.0,5.23,-999.0,no,yes,no,300234066510040,SVPGHI,AOML,UNKNOWN,North
2020-07-09T22:00:02Z,2020,22,0,191.9167,191.9167,58.846,-58.91,-999.0,5.18,-999.0,no,yes,no,300234066510040,SVPGHI,AOML,UNKNOWN,North
2020-07-09T23:00:57Z,2020,23,1,191.959,191.959,58.846,-58.893,-999.0,5.14,-999.0,no,yes,no,300234066510040,SVPGHI,AOML,UNKNOWN,North
2020-07-10T00:01:00Z,2020,0,1,192.0007,192.0007,58.857,-58.879,-999.0,5.18,-999.0,no,yes,no,300234066510040,SVPGHI,AOML,UNKNOWN,North
2020-07-10T01:03:56Z,2020,1,4,192.0444,192.0444,58.866,-58.868,-999.0,5.21,-999.0,no,yes,no,300234066510040,SVPGHI,AOML,UNKNOWN,North
2020-07-10T02:03:59Z,2020,2,4,192.0861,192.0861,58.889,-58.885,-999.0,5.21,-999.0,no,yes,no,300234066510040,SVPGHI,AOML,UNKNOWN,North
2020-07-10T03:03:01Z,2020,3,3,192.1271,192.1271,58.877,-58.858,-999.0,5.22,-999.0,no,yes,no,300234066510040,SVPGHI,AOML,UNKNOWN,North
2020-07-10T04:00:02Z,2020,4,0,192.1667,192.1667,58.878,-58.866,-999.0,5.26,-999.0,no,yes,no,300234066510040,SVPGHI,AOML,UNKNOWN,North
2020-07-10T04:59:57Z,2020,5,0,192.2083,192.2083,58.877,-58.881,-999.0,5.27,-999.0,no,yes,no,300234066510040,SVPGHI,AOML,UNKNOWN,North
2020-07-10T06:01:00Z,2020,6,1,192.2507,192.2507,58.875,-58.889,-999.0,5.28,-999.0,no,yes,no,300234066510040,SVPGHI,AOML,UNKNOWN,North
2020-07-10T07:59:57Z,2020,8,0,192.3333,192.3333,58.868,-58.9,-999.0,5.22,-999.0,no,yes,no,300234066510040,SVPGHI,AOML,UNKNOWN,North
2020-07-10T09:00:00Z,2020,9,0,192.375,192.375,58.857,-58.901,-999.0,5.22,-999.0,no,yes,no,300234066510040,SVPGHI,AOML,UNKNOWN,North
2020-07-10T10:00:02Z,2020,10,0,192.4167,192.4167,58.848,-58.899,-999.0,5.24,-999.0,no,yes,no,300234066510040,SVPGHI,AOML,UNKNOWN,North
2020-07-10T10:59:57Z,2020,11,0,192.4583,192.4583,58.84,-58.895,-999.0,5.25,-999.0,no,yes,no,300234066510040,SVPGHI,AOML,UNKNOWN,North
2020-07-10T12:01:00Z,2020,12,1,192.5007,192.5007,58.835,-58.889,-999.0,5.3,-999.0,no,yes,no,300234066510040,SVPGHI,AOML,UNKNOWN,North
2020-07-10T13:00:02Z,2020,13,0,192.5417,192.5417,58.834,-58.879,-999.0,5.47,-999.0,no,yes,no,300234066510040,SVPGHI,AOML,UNKNOWN,North
2020-07-10T13:59:57Z,2020,14,0,192.5833,192.5833,58.835,-58.863,-999.0,5.49,-999.0,no,yes,no,300234066510040,SVPGHI,AOML,UNKNOWN,North
2020-07-10T15:00:00Z,2020,15,0,192.625,192.625,58.837,-58.844,-999.0,5.58,-999.0,no,yes,no,300234066510040,SVPGHI,AOML,UNKNOWN,North
2020-07-10T16:00:02Z,2020,16,0,192.6667,192.6667,58.876,-58.241,-999.0,5.71,-999.0,no,yes,no,300234066510040,SVPGHI,AOML,UNKNOWN,North
2020-07-10T16:58:56Z,2020,16,59,192.7076,192.7076,58.845,-58.814,-999.0,5.77,-999.0,no,yes,no,300234066510040,SVPGHI,AOML,UNKNOWN,North
2020-07-10T18:00:00Z,2020,18,0,192.75,192.75,58.851,-58.8,-999.0,5.62,-999.0,no,yes,no,300234066510040,SVPGHI,AOML,UNKNOWN,North
2020-07-10T19:00:02Z,2020,19,0,192.7917,192.7917,58.853,-58.798,-999.0,5.62,-999.0,no,yes,no,300234066510040,SVPGHI,AOML,UNKNOWN,North
2020-07-10T19:59:57Z,2020,20,0,192.8333,192.8333,58.857,-58.804,-999.0,5.69,-999.0,no,yes,no,300234066510040,SVPGHI,AOML,UNKNOWN,North
2020-07-10T21:00:00Z,2020,21,0,192.875,192.875,58.861,-58.813,-999.0,5.57,-999.0,no,yes,no,300234066510040,SVPGHI,AOML,UNKNOWN,North
2020-07-10T22:01:03Z,2020,22,1,192.9174,192.9174,58.865,-58.826,-999.0,5.56,-999.0,no,yes,no,300234066510040,SVPGHI,AOML,UNKNOWN,North
2020-07-10T22:59:57Z,2020,23,0,192.9583,192.9583,58.869,-58.841,-999.0,5.47,-999.0,no,yes,no,300234066510040,SVPGHI,AOML,UNKNOWN,North
2020-07-11T00:00:00Z,2020,0,0,193.0,193.0,58.871,-58.854,-999.0,5.46,-999.0,no,yes,no,300234066510040,SVPGHI,AOML,UNKNOWN,North
2020-07-11T01:00:02Z,2020,1,0,193.0417,193.0417,58.871,-58.867,-999.0,5.39,-999.0,no,yes,no,300234066510040,SVPGHI,AOML,UNKNOWN,North
2020-07-11T01:59:57Z,2020,2,0,193.0833,193.0833,58.865,-58.883,-999.0,5.38,-999.0,no,yes,no,300234066510040,SVPGHI,AOML,UNKNOWN,North
2020-07-11T03:00:00Z,2020,3,0,193.125,193.125,58.859,-58.897,-999.0,5.38,-999.0,no,yes,no,300234066510040,SVPGHI,AOML,UNKNOWN,North
2020-07-11T04:00:02Z,2020,4,0,193.1667,193.1667,58.853,-58.912,-999.0,5.36,-999.0,no,yes,no,300234066510040,SVPGHI,AOML,UNKNOWN,North
2020-07-11T04:59:57Z,2020,5,0,193.2083,193.2083,58.842,-58.918,-999.0,5.37,-999.0,no,yes,no,300234066510040,SVPGHI,AOML,UNKNOWN,North
2020-07-11T06:00:00Z,2020,6,0,193.25,193.25,58.827,-58.918,-999.0,5.37,-999.0,no,yes,no,300234066510040,SVPGHI,AOML,UNKNOWN,North
2020-07-11T07:00:02Z,2020,7,0,193.2917,193.2917,58.815,-58.911,-999.0,5.37,-999.0,no,yes,no,300234066510040,SVPGHI,AOML,UNKNOWN,North
2020-07-11T07:59:57Z,2020,8,0,193.3333,193.3333,58.803,-58.905,-999.0,5.36,-999.0,no,yes,no,300234066510040,SVPGHI,AOML,UNKNOWN,North
2020-07-11T09:00:00Z,2020,9,0,193.375,193.375,58.792,-58.894,-999.0,5.36,-999.0,no,yes,no,300234066510040,SVPGHI,AOML,UNKNOWN,North
2020-07-11T10:00:02Z,2020,10,0,193.4167,193.4167,58.787,-58.881,-999.0,5.38,-999.0,no,yes,no,300234066510040,SVPGHI,AOML,UNKNOWN,North
2020-07-11T10:59:57Z,2020,11,0,193.4583,193.4583,58.788,-58.862,-999.0,5.38,-999.0,no,yes,no,300234066510040,SVPGHI,AOML,UNKNOWN,North
2020-07-11T12:00:00Z,2020,12,0,193.5,193.5,58.791,-58.837,-999.0,5.32,-999.0,no,yes,no,300234066510040,SVPGHI,AOML,UNKNOWN,North
2020-07-11T13:00:02Z,2020,13,0,193.5417,193.5417,58.792,-58.816,-999.0,5.37,-999.0,no,yes,no,300234066510040,SVPGHI,AOML,UNKNOWN,North
2020-07-11T13:59:57Z,2020,14,0,193.5833,193.5833,58.794,-58.806,-999.0,5.43,-999.0,no,yes,no,300234066510040,SVPGHI,AOML,UNKNOWN,North
2020-07-11T15:00:00Z,2020,15,0,193.625,193.625,58.798,-58.801,-999.0,5.42,-999.0,no,yes,no,300234066510040,SVPGHI,AOML,UNKNOWN,North
2020-07-11T16:00:02Z,2020,16,0,193.6667,193.6667,58.805,-58.801,-999.0,5.45,-999.0,no,yes,no,300234066510040,SVPGHI,AOML,UNKNOWN,North
2020-07-11T16:59:57Z,2020,17,0,193.7083,193.7083,58.813,-58.806,-999.0,5.41,-999.0,no,yes,no,300234066510040,SVPGHI,AOML,UNKNOWN,North
2020-07-11T18:04:01Z,2020,18,4,193.7528,193.7528,58.816,-58.814,-999.0,5.43,-999.0,no,yes,no,300234066510040,SVPGHI,AOML,UNKNOWN,North
2020-07-11T19:00:02Z,2020,19,0,193.7917,193.7917,58.817,-58.824,-999.0,5.45,-999.0,no,yes,no,300234066510040,SVPGHI,AOML,UNKNOWN,North
2020-07-11T19:59:57Z,2020,20,0,193.8333,193.8333,58.816,-58.835,-999.0,5.42,-999.0,no,yes,no,300234066510040,SVPGHI,AOML,UNKNOWN,North
2020-07-11T21:00:00Z,2020,21,0,193.875,193.875,58.81,-58.846,-999.0,5.42,-999.0,no,yes,no,300234066510040,SVPGHI,AOML,UNKNOWN,North
2020-07-11T22:00:02Z,2020,22,0,193.9167,193.9167,58.803,-58.859,-999.0,5.42,-999.0,no,yes,no,300234066510040,SVPGHI,AOML,UNKNOWN,North
2020-07-11T22:59:57Z,2020,23,0,193.9583,193.9583,58.798,-58.866,-999.0,5.42,-999.0,no,yes,no,300234066510040,SVPGHI,AOML,UNKNOWN,North
2020-07-12T01:00:02Z,2020,1,0,194.0417,194.0417,58.785,-58.86,-999.0,5.43,-999.0,no,yes,no,300234066510040,SVPGHI,AOML,UNKNOWN,North
2020-07-12T01:59:57Z,2020,2,0,194.0833,194.0833,58.776,-58.855,-999.0,5.43,-999.0,no,yes,no,300234066510040,SVPGHI,AOML,UNKNOWN,North
2020-07-12T03:04:01Z,2020,3,4,194.1278,194.1278,58.768,-58.833,-999.0,5.44,-999.0,no,yes,no,300234066510040,SVPGHI,AOML,UNKNOWN,North
2020-07-12T04:03:56Z,2020,4,4,194.1694,194.1694,58.763,-58.822,-999.0,5.44,-999.0,no,yes,no,300234066510040,SVPGHI,AOML,UNKNOWN,North
2020-07-12T05:03:59Z,2020,5,4,194.2111,194.2111,58.758,-58.812,-999.0,5.51,-999.0,no,yes,no,300234066510040,SVPGHI,AOML,UNKNOWN,North
2020-07-12T06:00:00Z,2020,6,0,194.25,194.25,58.758,-58.795,-999.0,5.5,-999.0,no,yes,no,300234066510040,SVPGHI,AOML,UNKNOWN,North
2020-07-12T07:02:03Z,2020,7,2,194.2931,194.2931,58.762,-58.781,-999.0,5.5,-999.0,no,yes,no,300234066510040,SVPGHI,AOML,UNKNOWN,North
2020-07-12T07:59:57Z,2020,8,0,194.3333,194.3333,58.769,-58.769,-999.0,5.47,-999.0,no,yes,no,300234066510040,SVPGHI,AOML,UNKNOWN,North
2020-07-12T09:00:00Z,2020,9,0,194.375,194.375,58.775,-58.754,-999.0,5.47,-999.0,no,yes,no,300234066510040,SVPGHI,AOML,UNKNOWN,North
2020-07-12T10:00:02Z,2020,10,0,194.4167,194.4167,58.783,-58.743,-999.0,5.47,-999.0,no,yes,no,300234066510040,SVPGHI,AOML,UNKNOWN,North
2020-07-12T10:59:57Z,2020,11,0,194.4583,194.4583,58.789,-58.736,-999.0,5.47,-999.0,no,yes,no,300234066510040,SVPGHI,AOML,UNKNOWN,North
2020-07-12T12:00:00Z,2020,12,0,194.5,194.5,58.793,-58.737,-999.0,5.47,-999.0,no,yes,no,300234066510040,SVPGHI,AOML,UNKNOWN,North
2020-07-12T13:00:02Z,2020,13,0,194.5417,194.5417,58.795,-58.751,-999.0,5.48,-999.0,no,yes,no,300234066510040,SVPGHI,AOML,UNKNOWN,North
2020-07-12T14:03:59Z,2020,14,4,194.5861,194.5861,58.798,-58.773,-999.0,5.48,-999.0,no,yes,no,300234066510040,SVPGHI,AOML,UNKNOWN,North
2020-07-12T15:05:02Z,2020,15,5,194.6285,194.6285,-90.0,-180.0,-999.0,5.49,-999.0,no,yes,no,300234066510040,SVPGHI,AOML,UNKNOWN,North
2020-07-12T16:03:56Z,2020,16,4,194.6694,194.6694,58.808,-58.891,-999.0,5.48,-999.0,no,yes,no,300234066510040,SVPGHI,AOML,UNKNOWN,North
2020-07-12T16:59:57Z,2020,17,0,194.7083,194.7083,58.791,-58.879,-999.0,5.5,-999.0,no,yes,no,300234066510040,SVPGHI,AOML,UNKNOWN,North
2020-07-12T18:04:01Z,2020,18,4,194.7528,194.7528,58.799,-58.912,-999.0,5.53,-999.0,no,yes,no,300234066510040,SVPGHI,AOML,UNKNOWN,North
2020-07-12T19:03:56Z,2020,19,4,194.7944,194.7944,58.79,-58.923,-999.0,5.57,-999.0,no,yes,no,300234066510040,SVPGHI,AOML,UNKNOWN,North
2020-07-12T19:59:57Z,2020,20,0,194.8333,194.8333,58.778,-58.934,-999.0,5.57,-999.0,no,yes,no,300234066510040,SVPGHI,AOML,UNKNOWN,North
2020-07-12T21:00:00Z,2020,21,0,194.875,194.875,58.763,-58.946,-999.0,5.57,-999.0,no,yes,no,300234066510040,SVPGHI,AOML,UNKNOWN,North
2020-07-12T22:00:02Z,2020,22,0,194.9167,194.9167,58.75,-58.954,-999.0,5.58,-999.0,no,yes,no,300234066510040,SVPGHI,AOML,UNKNOWN,North
2020-07-12T22:59:57Z,2020,23,0,194.9583,194.9583,58.738,-58.962,-999.0,5.57,-999.0,no,yes,no,300234066510040,SVPGHI,AOML,UNKNOWN,North
2020-07-13T00:01:00Z,2020,0,1,195.0007,195.0007,58.733,-58.966,-999.0,5.54,-999.0,no,yes,no,300234066510040,SVPGHI,AOML,UNKNOWN,North
2020-07-13T01:02:03Z,2020,1,2,195.0431,195.0431,58.73,-58.958,-999.0,5.44,-999.0,no,yes,no,300234066510040,SVPGHI,AOML,UNKNOWN,North
2020-07-13T02:03:59Z,2020,2,4,195.0861,195.0861,58.72,-58.943,-999.0,5.37,-999.0,no,yes,no,300234066510040,SVPGHI,AOML,UNKNOWN,North
2020-07-13T03:04:01Z,2020,3,4,195.1278,195.1278,58.714,-58.925,-999.0,5.35,-999.0,no,yes,no,300234066510040,SVPGHI,AOML,UNKNOWN,North
2020-07-13T04:03:56Z,2020,4,4,195.1694,195.1694,58.707,-58.915,-999.0,5.37,-999.0,no,yes,no,300234066510040,SVPGHI,AOML,UNKNOWN,North
2020-07-13T05:03:59Z,2020,5,4,195.2111,195.2111,58.68,-58.893,-999.0,5.38,-999.0,no,yes,no,300234066510040,SVPGHI,AOML,UNKNOWN,North
2020-07-13T06:04:01Z,2020,6,4,195.2528,195.2528,58.691,-58.886,-999.0,5.37,-999.0,no,yes,no,300234066510040,SVPGHI,AOML,UNKNOWN,North
2020-07-13T07:03:56Z,2020,7,4,195.2944,195.2944,58.691,-58.87,-999.0,5.36,-999.0,no,yes,no,300234066510040,SVPGHI,AOML,UNKNOWN,North
2020-07-13T08:02:58Z,2020,8,3,195.3354,195.3354,58.695,-58.861,-999.0,5.35,-999.0,no,yes,no,300234066510040,SVPGHI,AOML,UNKNOWN,North
2020-07-13T09:04:01Z,2020,9,4,195.3778,195.3778,58.698,-58.838,-999.0,5.35,-999.0,no,yes,no,300234066510040,SVPGHI,AOML,UNKNOWN,North
2020-07-13T10:01:03Z,2020,10,1,195.4174,195.4174,58.701,-58.819,-999.0,5.35,-999.0,no,yes,no,300234066510040,SVPGHI,AOML,UNKNOWN,North
2020-07-13T12:02:00Z,2020,12,2,195.5014,195.5014,58.708,-58.723,-999.0,5.35,-999.0,no,yes,no,300234066510040,SVPGHI,AOML,UNKNOWN,North
2020-07-13T13:00:02Z,2020,13,0,195.5417,195.5417,58.712,-58.721,-999.0,5.35,-999.0,no,yes,no,300234066510040,SVPGHI,AOML,UNKNOWN,North
2020-07-13T13:59:57Z,2020,14,0,195.5833,195.5833,58.72,-58.724,-999.0,5.36,-999.0,no,yes,no,300234066510040,SVPGHI,AOML,UNKNOWN,North
2020-07-13T15:03:01Z,2020,15,3,195.6271,195.6271,58.765,-58.759,-999.0,5.39,-999.0,no,yes,no,300234066510040,SVPGHI,AOML,UNKNOWN,North
2020-07-13T16:03:56Z,2020,16,4,195.6694,195.6694,-90.0,-180.0,-999.0,5.4,-999.0,no,yes,no,300234066510040,SVPGHI,AOML,UNKNOWN,North
2020-07-13T18:00:00Z,2020,18,0,195.75,195.75,58.748,-58.752,-999.0,5.45,-999.0,no,yes,no,300234066510040,SVPGHI,AOML,UNKNOWN,North
2020-07-13T19:03:56Z,2020,19,4,195.7944,195.7944,58.738,-58.821,-999.0,5.46,-999.0,no,yes,no,300234066510040,SVPGHI,AOML,UNKNOWN,North
2020-07-13T20:03:59Z,2020,20,4,195.8361,195.8361,58.746,-58.845,-999.0,5.47,-999.0,no,yes,no,300234066510040,SVPGHI,AOML,UNKNOWN,North
2020-07-13T21:00:00Z,2020,21,0,195.875,195.875,58.741,-58.855,-999.0,5.5,-999.0,no,yes,no,300234066510040,SVPGHI,AOML,UNKNOWN,North
2020-07-13T22:02:03Z,2020,22,2,195.9181,195.9181,58.732,-58.87,-999.0,5.49,-999.0,no,yes,no,300234066510040,SVPGHI,AOML,UNKNOWN,North
2020-07-13T23:00:57Z,2020,23,1,195.959,195.959,58.723,-58.807,-999.0,5.49,-999.0,no,yes,no,300234066510040,SVPGHI,AOML,UNKNOWN,North
2020-07-14T00:00:00Z,2020,0,0,196.0,196.0,58.715,-58.813,-999.0,5.48,-999.0,no,yes,no,300234066510040,SVPGHI,AOML,UNKNOWN,North
2020-07-14T01:00:02Z,2020,1,0,196.0417,196.0417,58.709,-58.812,-999.0,5.47,-999.0,no,yes,no,300234066510040,SVPGHI,AOML,UNKNOWN,North
2020-07-14T02:03:59Z,2020,2,4,196.0861,196.0861,-90.0,-180.0,-999.0,5.46,-999.0,no,yes,no,300234066510040,SVPGHI,AOML,UNKNOWN,North
2020-07-14T03:02:00Z,2020,3,2,196.1264,196.1264,58.696,-58.789,-999.0,5.44,-999.0,no,yes,no,300234066510040,SVPGHI,AOML,UNKNOWN,North
2020-07-14T04:00:02Z,2020,4,0,196.1667,196.1667,58.69,-58.773,-999.0,5.43,-999.0,no,yes,no,300234066510040,SVPGHI,AOML,UNKNOWN,North
2020-07-14T04:59:57Z,2020,5,0,196.2083,196.2083,58.686,-58.758,-999.0,5.43,-999.0,no,yes,no,300234066510040,SVPGHI,AOML,UNKNOWN,North
2020-07-14T06:01:00Z,2020,6,1,196.2507,196.2507,58.684,-58.743,-999.0,5.43,-999.0,no,yes,no,300234066510040,SVPGHI,AOML,UNKNOWN,North
2020-07-14T07:00:02Z,2020,7,0,196.2917,196.2917,58.684,-58.731,-999.0,5.43,-999.0,no,yes,no,300234066510040,SVPGHI,AOML,UNKNOWN,North